Regional Weather Roundup
Issued by NWS

Home | Current Version | Previous Version | Text Only | Print | Product List | Glossary On
Versions: 1 2 3 4 5 6 7 8 9 10 11 12 13 14 15 16 17 18 19 20 21 22 23 24 25 26 27 28 29 30 31 32 33 34 35 36 37 38 39 40 41 42 43 44 45 46 47 48 49 50
000
ASUS44 KOUN 252000
RWROK

WEATHER ROUNDUP FOR OKLAHOMA
NATIONAL WEATHER SERVICE NORMAN OK
300 PM CDT SAT MAR 25 2017

NOTE: "FAIR" INDICATES FEW OR NO CLOUDS BELOW 12,000 FEET WITH NO
      SIGNIFICANT WEATHER AND/OR OBSTRUCTIONS TO VISIBILITY.

OKZ001>007-009>012-014-015-017-252100-
NORTHWEST OKLAHOMA AND THE PANHANDLE

CITY           SKY/WX    TMP DP  RH WIND       PRES   REMARKS
GAGE           SUNNY     68  38  33 NW8       29.93F
GUYMON         SUNNY     64  22  20 VRB3      29.96F
$$

OKZ016-021>023-033>039-044-045-252100-
SOUTHWEST OKLAHOMA

CITY           SKY/WX    TMP DP  RH WIND       PRES   REMARKS
LAWTON/REGL    MOSUNNY   66  43  43 VRB7      29.96F
LAWTON/FT SILL MOSUNNY   65  46  49 N7        29.94F
FREDERICK      SUNNY     68  42  38 NW10G18   29.94F
CLINTON        SUNNY     65  41  41 NW13G18   29.95F
HOBART         SUNNY     65  41  41 NW10      29.96F
ALTUS AFB      SUNNY     68  37  31 NW13G21   29.95F
$$

OKZ018>020-024>031-252100-
CENTRAL OKLAHOMA

CITY           SKY/WX    TMP DP  RH WIND       PRES   REMARKS
OKLAHOMA CITY  CLOUDY    55  42  61 NW12      29.97F
OKC/WILEY POST CLOUDY    55  44  66 NW13      29.96F
OKC/TINKER AFB CLOUDY    54  42  63 NW15      29.95F
STILLWATER     CLOUDY    54  41  61 NW14      29.95F
GUTHRIE        CLOUDY    54  42  64 NW8       29.96F
$$

OKZ008-013-054>072-252100-
NORTHEAST OKLAHOMA

CITY           SKY/WX    TMP DP  RH WIND       PRES   REMARKS
TULSA          CLOUDY    52  45  77 W13       29.93F
TULSA/JONES    CLOUDY    52  43  71 NW9       29.94F
PONCA CITY     CLOUDY    51  41  68 NW15G21   29.93F
BARTLESVILLE   CLOUDY    50  42  74 W6G16     29.94F
MUSKOGEE       CLOUDY    53  45  74 W13       29.96F
$$

OKZ032-040>043-046>053-073>077-252100-
SOUTH CENTRAL/SOUTHEAST OKLAHOMA

CITY           SKY/WX    TMP DP  RH WIND       PRES   REMARKS
MCALESTER      CLOUDY    61  44  53 W14       29.95F
$$




USA.gov is the U.S. government's official web portal to all federal, state and local government web resources and services.